RH
21 21 21 21 22 23 24 25 26 28 28 28 29 29 31 30 29 27 25 24 25 25 25 25 23 21 19 17 18 20 29 41 46 58 59 63 64 64 67 80 86 88 92
23 24 24 25 27 29 30 32 32 32 32 32 32 32 32 31 31 31 31 31 28 24 23 23 24 26 24 22 21 19 19 21 29 41 54 62 61 65 66 64 64 69 80
26 29 30 33 34 34 34 33 33 32 32 31 29 28 30 32 33 37 41 43 43 41 37 28 24 24 25 27 26 25 23 22 21 30 34 49 54 58 55 61 63 61 66
33 34 34 35 34 32 30 28 25 25 23 22 21 25 28 33 43 48 47 46 48 54 58 56 48 35 27 25 27 29 27 25 24 23 28 31 42 49 53 53 55 65 64
32 33 35 36 33 28 25 23 21 17 17 21 32 37 38 39 45 41 41 44 46 52 57 62 66 62 52 37 29 27 30 33 29 26 28 32 33 38 48 48 45 48 57
31 35 37 36 31 26 24 19 19 25 45 49 50 49 45 41 36 37 42 49 52 56 63 69 74 76 70 59 48 35 30 31 32 32 29 30 34 42 43 46 46 41 40
35 37 35 32 26 25 21 25 29 50 53 53 50 43 38 36 37 41 46 49 52 56 65 65 67 79 85 80 69 52 40 34 32 32 32 31 29 33 38 46 52 54 52
36 37 35 29 30 28 30 28 41 53 52 45 40 37 37 42 41 42 41 44 49 52 53 59 65 67 73 83 84 75 55 39 33 30 32 33 33 32 31 31 36 40 44
42 42 35 35 32 31 25 29 51 54 47 45 40 41 43 40 41 39 40 43 47 53 54 49 55 63 71 73 82 83 74 57 43 37 35 33 38 39 39 39 37 35 34
50 44 38 33 31 25 20 26 52 56 51 47 45 45 40 35 36 39 43 42 44 49 53 53 47 52 61 70 73 77 73 66 55 47 41 38 39 37 38 38 42 47 45
52 41 34 28 26 18 14 20 44 48 45 43 45 43 39 38 40 44 48 52 54 56 58 52 47 50 52 52 57 61 62 59 54 50 44 38 37 35 33 33 37 37 40
47 34 31 24 20 15 12 13 32 34 37 40 41 43 43 41 41 43 46 48 50 55 56 57 51 42 44 52 51 46 45 45 45 41 41 41 41 37 37 37 37 36 38
32 31 28 21 15 13 12 12 22 31 33 35 37 39 38 37 37 38 41 45 46 48 49 51 54 49 42 42 43 46 47 45 42 41 40 39 38 37 36 36 36 37 37
29 35 23 20 15 13 13 14 16 26 30 32 32 31 30 31 34 37 38 40 42 45 47 48 50 52 51 49 44 42 41 41 41 42 42 42 41 40 38 38 39 40 41
35 31 24 18 17 14 13 14 14 16 24 27 28 26 21 20 24 29 32 34 36 39 41 42 45 48 50 50 50 50 50 50 48 45 43 42 41 42 44 46 46 46 47
34 27 19 18 17 16 13 14 14 14 15 18 20 20 18 18 22 25 27 28 30 31 33 34 38 43 46 48 48 49 49 49 49 48 48 48 48 48 49 48 47 45 45
25 20 16 15 16 16 13 12 12 13 14 15 16 17 18 19 20 22 24 26 27 28 30 31 36 39 41 43 46 47 51 53 53 53 55 56 56 57 56 57 57 52 51
21 15 14 15 15 15 12 11 12 12 13 14 15 16 17 18 19 20 22 24 25 26 26 28 31 36 38 41 41 44 48 52 54 53 52 56 55 52 49 55 61 58 60
17 13 12 13 14 13 12 11 12 12 12 13 13 14 15 16 17 19 21 23 24 24 26 27 27 28 30 33 36 38 42 45 46 46 47 45 42 40 48 48 57 57 58
15 15 14 12 12 12 12 12 11 11 11 12 13 13 14 14 16 17 19 21 22 23 24 24 25 24 23 22 22 25 29 32 32 31 28 25 23 21 21 24 28 31 36
14 14 12 12 12 12 12 12 12 12 13 13 13 13 14 14 16 17 18 20 22 22 22 22 22 21 20 19 19 19 22 26 26 23 19 18 16 16 16 17 18 19 19
14 12 10 10 12 14 14 13 13 13 14 14 14 15 16 17 18 19 19 20 21 21 21 20 19 19 19 18 17 18 23 25 23 19 16 15 14 14 14 15 15 16 17
12 11 10 9 10 10 12 14 14 17 17 16 16 17 18 19 20 21 21 22 23 23 23 22 19 19 19 18 19 21 27 27 20 17 17 17 17 17 17 17 17 16 16
11 11 10 10 10 10 10 10 11 13 17 19 19 20 21 22 22 23 24 25 27 29 29 27 22 21 21 22 23 26 33 27 19 19 19 18 19 19 20 20 20 19 19
11 11 11 11 11 11 12 12 12 13 15 19 21 23 23 24 25 26 27 29 31 33 32 31 29 27 26 28 30 33 35 26 21 21 22 22 23 24 25 26 26 26 25
13 13 12 12 12 13 13 14 16 18 20 21 23 24 25 26 26 28 30 32 35 36 36 37 38 37 34 35 37 38 36 28 25 25 25 26 28 28 30 33 33 33 31